Flight Track Log - Related Links

Times and Time Zones

All times are in EDT time to prevent confusion due to time zone crossing. See the N233NC flight status page for this flight to view local times or setup timezone preferences in your user account.

Time Position Orientation Groundspeed Altitude Reporting Facility
EDT Latitude Longitude Course Direction KTS MPH feet Rate Location/Type
Tue 11:57:19 AM 45.1608 -93.1872 97° East 112 129 2,400  Level FAA TRACON SMA TRACON (SMA)
Tue 11:57:39 AM 45.1597 -93.1736 97° East 114 131 2,800 750 Climbing FAA TRACON SMA TRACON (SMA)
Tue 11:57:59 AM 45.1578 -93.1539 98° East 125 144 2,900 150 Climbing FAA TRACON SMA TRACON (SMA)
Tue 11:58:19 AM 45.1561 -93.1361 98° East 140 161 2,900  Level FAA TRACON SMA TRACON (SMA)
Tue 11:58:39 AM 45.1544 -93.1181 97° East 149 171 2,900  Level FAA TRACON SMA TRACON (SMA)
Tue 11:58:59 AM 45.1531 -93.1000 96° East 151 174 2,900  Level FAA TRACON SMA TRACON (SMA)
Tue 11:59:18 AM 45.1506 -93.0772 99° East 153 176 2,900  Level FAA TRACON SMA TRACON (SMA)
Tue 11:59:39 AM 45.1428 -93.0617 125° Southeast 160 184 2,900  Level FAA TRACON SMA TRACON (SMA)
Tue 11:59:59 AM 45.1353 -93.0467 125° Southeast 154 177 2,900  Level FAA TRACON SMA TRACON (SMA)
Tue 12:00:19 PM 45.1264 -93.0297 127° Southeast 145 167 2,900  Level FAA TRACON SMA TRACON (SMA)
Tue 12:00:39 PM 45.1194 -93.0164 126° Southeast 139 160 2,900  Level FAA TRACON SMA TRACON (SMA)
Tue 12:00:59 PM 45.1125 -93.0036 128° Southeast 134 154 2,900  Level FAA TRACON SMA TRACON (SMA)
Tue 12:01:19 PM 45.1042 -92.9881 127° Southeast 129 148 2,900  Level FAA TRACON SMA TRACON (SMA)
Tue 12:01:39 PM 45.0972 -92.9753 128° Southeast 129 148 2,900  Level FAA TRACON SMA TRACON (SMA)
Tue 12:01:59 PM 45.0906 -92.9628 127° Southeast 131 151 2,900  Level FAA TRACON SMA TRACON (SMA)
Tue 12:02:19 PM 45.0814 -92.9450 126° Southeast 137 158 2,900  Level FAA TRACON SMA TRACON (SMA)
Tue 12:02:39 PM 45.0750 -92.9328 127° Southeast 134 154 2,900 150 Level FAA TRACON SMA TRACON (SMA)
Tue 12:02:59 PM 45.0675 -92.9208 132° Southeast 134 154 3,000 600 Climbing FAA TRACON SMA TRACON (SMA)
Tue 12:03:19 PM 45.0525 -92.9206 179° South 150 173 3,300 600 Climbing FAA TRACON SMA TRACON (SMA)
Tue 12:03:39 PM 45.0453 -92.9347 234° Southwest 156 180 3,400 150 Climbing FAA TRACON SMA TRACON (SMA)
Tue 12:03:59 PM 45.0464 -92.9469 277° West 152 175 3,400  Level FAA TRACON SMA TRACON (SMA)
Tue 12:04:19 PM 45.0533 -92.9683 295° West 135 155 3,400  Level FAA TRACON SMA TRACON (SMA)
Tue 12:04:39 PM 45.0581 -92.9825 295° West 129 148 3,400  Level FAA TRACON SMA TRACON (SMA)
Tue 12:04:59 PM 45.0622 -92.9956 294° West 123 142 3,400  Level FAA TRACON SMA TRACON (SMA)
Tue 12:05:19 PM 45.0678 -93.0122 295° West 121 139 3,400  Level FAA TRACON SMA TRACON (SMA)
Tue 12:05:39 PM 45.0725 -93.0258 296° West 122 140 3,400  Level FAA TRACON SMA TRACON (SMA)
Tue 12:05:59 PM 45.0764 -93.0386 293° West 118 136 3,400  Level FAA TRACON SMA TRACON (SMA)
Tue 12:06:19 PM 45.0817 -93.0547 295° West 117 135 3,400  Level FAA TRACON SMA TRACON (SMA)
Tue 12:06:39 PM 45.0875 -93.0664 305° West 118 136 3,400  Level FAA TRACON SMA TRACON (SMA)
Tue 12:06:59 PM 45.0931 -93.0772 306° West 115 132 3,400  Level FAA TRACON SMA TRACON (SMA)
Tue 12:07:19 PM 45.1003 -93.0911 306° West 113 130 3,400  Level FAA TRACON SMA TRACON (SMA)
Tue 12:07:39 PM 45.1061 -93.1025 306° West 113 130 3,400  Level FAA TRACON SMA TRACON (SMA)
Tue 12:07:59 PM 45.1119 -93.1139 306° West 115 132 3,400  Level FAA TRACON SMA TRACON (SMA)
Tue 12:08:18 PM 45.1189 -93.1275 306° West 113 130 3,400  Level FAA TRACON SMA TRACON (SMA)
Tue 12:08:39 PM 45.1244 -93.1386 305° West 114 131 3,400  Level FAA TRACON SMA TRACON (SMA)
Tue 12:08:59 PM 45.1306 -93.1503 307° West 116 133 3,400  Level FAA TRACON SMA TRACON (SMA)
Tue 12:09:19 PM 45.1378 -93.1642 306° West 114 131 3,400  Level FAA TRACON SMA TRACON (SMA)
Tue 12:09:39 PM 45.1400 -93.1783 283° West 125 144 3,400  Level FAA TRACON SMA TRACON (SMA)
Tue 12:09:59 PM 45.1353 -93.1872 233° Southwest 131 151 3,400  Level FAA TRACON SMA TRACON (SMA)
Tue 12:10:20 PM 45.1239 -93.2033 225° Southwest 126 145 3,400  Level FAA TRACON SMA TRACON (SMA)
Tue 12:10:39 PM 45.1144 -93.2094 205° Southwest 129 148 3,400  Level FAA TRACON SMA TRACON (SMA)
Tue 12:10:59 PM 45.1036 -93.2067 170° South 131 151 3,400  Level FAA TRACON SMA TRACON (SMA)
Tue 12:11:19 PM 45.0900 -93.2033 170° South 128 147 3,400  Level FAA TRACON SMA TRACON (SMA)
Tue 12:11:39 PM 45.0794 -93.1994 165° South 130 150 3,400  Level FAA TRACON SMA TRACON (SMA)
Tue 12:11:59 PM 45.0711 -93.1908 144° Southeast 125 144 3,400  Level FAA TRACON SMA TRACON (SMA)
Tue 12:12:19 PM 45.0603 -93.1808 147° Southeast 121 139 3,400  Level FAA TRACON SMA TRACON (SMA)
Tue 12:12:39 PM 45.0517 -93.1725 146° Southeast 121 139 3,400 -300 Level FAA TRACON SMA TRACON (SMA)
Tue 12:12:59 PM 45.0422 -93.1633 146° Southeast 129 148 3,200 -900 Descending FAA TRACON SMA TRACON (SMA)
Tue 12:13:19 PM 45.0300 -93.1517 146° Southeast 139 160 2,800 -900 Descending FAA TRACON SMA TRACON (SMA)
Tue 12:13:39 PM 45.0214 -93.1433 146° Southeast 128 147 2,600 -600 Descending FAA TRACON SMA TRACON (SMA)
Tue 12:13:59 PM 45.0131 -93.1356 147° Southeast 118 136 2,400 -600 Descending FAA TRACON SMA TRACON (SMA)
Tue 12:14:19 PM 45.0031 -93.1261 146° Southeast 112 129 2,200 -585 Descending FAA TRACON SMA TRACON (SMA)
Tue 12:14:40 PM 44.9950 -93.1186 147° Southeast 111 128 2,000 -600 Descending FAA TRACON SMA TRACON (SMA)
Tue 12:14:59 PM 44.9869 -93.1106 145° Southeast 114 131 1,800 -769 Descending FAA TRACON SMA TRACON (SMA)
Tue 12:15:19 PM 44.9769 -93.1014 147° Southeast 112 129 1,500 -450 Descending FAA TRACON SMA TRACON (SMA)
Tue 12:15:39 PM 44.9697 -93.0939 144° Southeast 107 123 1,500 150 Level FAA TRACON SMA TRACON (SMA)
Tue 12:15:59 PM 44.9639 -93.0836 129° Southeast 109 125 1,600  Climbing FAA TRACON SMA TRACON (SMA)
Tue 12:16:19 PM 44.9575 -93.0703 124° Southeast 106 122 1,500 -150 Descending FAA TRACON SMA TRACON (SMA)
Tue 12:16:39 PM 44.9519 -93.0611 131° Southeast 101 116 1,500  Level FAA TRACON SMA TRACON (SMA)
Tue 12:16:59 PM 44.9458 -93.0533 138° Southeast 98 113 1,500  Level FAA TRACON SMA TRACON (SMA)
Tue 12:17:19 PM 44.9378 -93.0444 142° Southeast 95 109 1,500 -150 Level FAA TRACON SMA TRACON (SMA)
Tue 12:17:39 PM 44.9306 -93.0383 149° Southeast 95 109 1,400 -450 Descending FAA TRACON SMA TRACON (SMA)
Tue 12:17:59 PM 44.9225 -93.0356 166° South 103 119 1,200 -450 Descending FAA TRACON SMA TRACON (SMA)
Tue 12:18:19 PM 44.9183 -93.0411 223° Southwest 107 123 1,100 -146 Descending FAA TRACON SMA TRACON (SMA)
Tue 12:18:40 PM 44.9183 -93.0411 347° North 107 123 1,100  Level FAA TRACON SMA TRACON (SMA)
Tue 12:20:00 PM 44.9333 -93.0500 325° Northwest  Level FlightAware Approximate

Login

Don't have an account? Register now (free) for customized features, flight alerts, and more!